Regional Weather Roundup
Issued by NWS

Home | Current Version | Previous Version | Graphics & Text | Print | Product List | Glossary On
Versions: 1 2 3 4 5 6 7 8 9 10 11 12 13 14 15 16 17 18 19 20 21 22 23 24 25 26 27 28 29 30 31 32 33 34 35 36 37 38 39 40 41 42 43 44 45 46 47 48 49 50
000
ASUS43 KLSX 271959
RWRMO

WEATHER SUMMARY FOR MISSOURI
NATIONAL WEATHER SERVICE SPRINGFIELD MO
300 PM CDT MON MAR 27 2017

NOTE: "FAIR" INDICATES FEW OR NO CLOUDS BELOW 12,000 FEET WITH NO
       SIGNIFICANT WEATHER AND/OR OBSTRUCTIONS TO VISIBILITY.
       CURRENT SKY AND/OR WEATHER CONDITIONS ARE NOT AVAILABLE FOR
       CHILLICOTHE AND FARMINGTON.

MOZ001>031-035>038-043-044-053-054-272100-
...NORTHERN AND WESTERN MISSOURI...

CITY           SKY/WX    TMP DP  RH WIND       PRES   REMARKS
KANSAS CTY INT CLOUDY    50  49  96 N13       29.92F
KANSAS C DTWN  CLOUDY    52  47  83 N8        29.91F
LEE`S SUMMIT   CLOUDY    51  49  92 N12       29.91F
ST JOSEPH      CLOUDY    53  47  79 N12       29.94F
CHILLICOTHE      N/A     51  47  86 N9        29.92S
KIRKSVILLE     CLOUDY    51  49  92 N12       29.89S

$$
MOZ066>068-077>081-088>096-101>105-272100-
...SOUTHWEST MISSOURI...

CITY           SKY/WX    TMP DP  RH WIND       PRES   REMARKS
SPRINGFIELD    CLOUDY    59  53  80 NW10      29.85R
JOPLIN         CLOUDY    53  51  93 NW10      29.91R
BRANSON        PTSUNNY   63  54  72 NW9       29.85S

$$
MOZ032>034-039>042-045>050-055>058-069>072-272100-
...CENTRAL MISSOURI...

CITY           SKY/WX    TMP DP  RH WIND       PRES   REMARKS
COLUMBIA       LGT RAIN  54  53  97 NE9       29.84S FOG
JEFFERSON CITY CLOUDY    58  53  84 NE6       29.83F
ROLLA          CLOUDY    60  56  86 NW8       29.81S
SEDALIA        CLOUDY    53  51  93 NW10      29.88S
WARRENSBURG    CLOUDY    52  46  82 NW12      29.89S
OSAGE BEACH    CLOUDY   N/A N/A N/A NW10G16   29.83S

$$
MOZ051-052-059>065-272100-
...EAST CENTRAL MISSOURI...

CITY           SKY/WX    TMP DP  RH WIND       PRES   REMARKS
ST LOUIS INTL  CLOUDY    56  53  90 NW10      29.83S
SPIRIT OF STL  CLOUDY    56  54  93 N7        29.82F FOG
ST CHARLES     CLOUDY    56  54  93 N8        29.83S

$$
MOZ072>076-082>087-097>100-106>115-272100-
...SOUTH CENTRAL AND SOUTHEAST MISSOURI...

CITY           SKY/WX    TMP DP  RH WIND       PRES   REMARKS
CAPE GIRARDEAU PTSUNNY   59  55  87 CALM      29.81R
FARMINGTON     CLOUDY    62  54  74 W7        29.81F
POPLAR BLUFF   CLOUDY    61  57  87 S3        29.80F
WEST PLAINS    PTSUNNY   64  56  75 W8        29.83S

$$



USA.gov is the U.S. government's official web portal to all federal, state and local government web resources and services.